Time,TemperatureF,DewpointF,PressureIn,WindDirection,WindDirectionDegrees,WindSpeedMPH,WindSpeedGustMPH,Humidity,HourlyPrecipIn,Conditions,Clouds,dailyrainin,SoftwareType,DateUTC
2013-08-11 00:03:00,68.9,57.9,29.88,SSW,209,1.0,2.0,68,0.00,,,0.00,Wunderground v.1.15,2013-08-11 07:03:00,
2013-08-11 00:09:00,68.9,58.3,29.88,NW,315,1.0,2.0,69,0.00,,,0.00,Wunderground v.1.15,2013-08-11 07:09:00,
2013-08-11 00:15:00,68.7,58.5,29.88,NNW,348,2.0,3.0,70,0.00,,,0.00,Wunderground v.1.15,2013-08-11 07:15:00,
2013-08-11 00:20:00,68.2,58.0,29.88,NNW,348,2.0,2.0,70,0.00,,,0.00,Wunderground v.1.15,2013-08-11 07:20:00,
2013-08-11 00:25:00,67.9,58.9,29.87,NNW,348,3.0,3.0,73,0.00,,,0.00,Wunderground v.1.15,2013-08-11 07:25:00,
2013-08-11 00:31:00,67.5,59.3,29.88,NW,323,3.0,4.0,75,0.00,,,0.00,Wunderground v.1.15,2013-08-11 07:31:00,
2013-08-11 00:37:00,67.2,59.0,29.87,NW,306,3.0,4.0,75,0.00,,,0.00,Wunderground v.1.15,2013-08-11 07:37:00,
2013-08-11 00:42:00,66.9,59.8,29.87,NNW,334,2.0,3.0,78,0.00,,,0.00,Wunderground v.1.15,2013-08-11 07:42:00,
2013-08-11 00:48:00,66.5,60.1,29.87,NW,316,2.0,3.0,80,0.00,,,0.00,Wunderground v.1.15,2013-08-11 07:48:00,
2013-08-11 00:53:00,66.3,60.3,29.87,NW,316,1.0,2.0,81,0.00,,,0.00,Wunderground v.1.15,2013-08-11 07:53:00,
2013-08-11 00:59:00,66.2,59.5,29.87,West,264,1.0,2.0,79,0.00,,,0.00,Wunderground v.1.15,2013-08-11 07:59:00,
2013-08-11 01:05:00,66.2,59.5,29.87,West,264,1.0,2.0,79,0.00,,,0.00,Wunderground v.1.15,2013-08-11 08:05:00,
2013-08-11 01:10:00,66.0,60.0,29.87,West,279,1.0,1.0,81,0.00,,,0.00,Wunderground v.1.15,2013-08-11 08:10:00,
2013-08-11 01:16:00,65.9,59.9,29.87,West,279,1.0,2.0,81,0.00,,,0.00,Wunderground v.1.15,2013-08-11 08:16:00,
2013-08-11 01:22:00,65.8,59.8,29.88,West,279,1.0,1.0,81,0.00,,,0.00,Wunderground v.1.15,2013-08-11 08:22:00,
2013-08-11 01:27:00,65.6,60.0,29.88,West,279,1.0,3.0,82,0.00,,,0.00,Wunderground v.1.15,2013-08-11 08:27:00,
2013-08-11 01:33:00,65.4,59.4,29.88,West,279,1.0,2.0,81,0.00,,,0.00,Wunderground v.1.15,2013-08-11 08:33:00,
2013-08-11 01:38:00,65.2,59.6,29.88,West,279,2.0,2.0,82,0.00,,,0.00,Wunderground v.1.15,2013-08-11 08:38:00,
2013-08-11 01:44:00,64.9,59.3,29.88,West,279,2.0,2.0,82,0.00,,,0.00,Wunderground v.1.15,2013-08-11 08:44:00,
2013-08-11 01:49:00,64.7,59.4,29.88,West,279,1.0,2.0,83,0.00,,,0.00,Wunderground v.1.15,2013-08-11 08:49:00,
2013-08-11 01:55:00,64.4,58.8,29.88,NW,324,1.0,3.0,82,0.00,,,0.00,Wunderground v.1.15,2013-08-11 08:55:00,
2013-08-11 02:01:00,64.4,58.4,29.88,NW,324,2.0,2.0,81,0.00,,,0.00,Wunderground v.1.15,2013-08-11 09:01:00,
2013-08-11 02:07:00,64.3,58.7,29.88,NW,324,1.0,2.0,82,0.00,,,0.00,Wunderground v.1.15,2013-08-11 09:07:00,
2013-08-11 02:13:00,64.1,58.5,29.88,NW,326,1.0,3.0,82,0.00,,,0.00,Wunderground v.1.15,2013-08-11 09:13:00,
2013-08-11 02:18:00,63.7,58.1,29.88,North,355,2.0,3.0,82,0.00,,,0.00,Wunderground v.1.15,2013-08-11 09:18:00,
2013-08-11 02:24:00,63.5,57.9,29.87,North,355,2.0,2.0,82,0.00,,,0.00,Wunderground v.1.15,2013-08-11 09:24:00,
2013-08-11 02:29:00,63.5,57.6,29.87,North,355,2.0,2.0,81,0.00,,,0.00,Wunderground v.1.15,2013-08-11 09:29:00,
2013-08-11 02:35:00,63.5,57.9,29.87,North,355,2.0,3.0,82,0.00,,,0.00,Wunderground v.1.15,2013-08-11 09:35:00,
2013-08-11 02:40:00,63.4,57.8,29.87,North,360,2.0,2.0,82,0.00,,,0.00,Wunderground v.1.15,2013-08-11 09:40:00,
2013-08-11 02:45:00,63.4,57.8,29.87,North,355,2.0,2.0,82,0.00,,,0.00,Wunderground v.1.15,2013-08-11 09:45:00,
2013-08-11 02:51:00,63.3,57.7,29.87,North,355,2.0,2.0,82,0.00,,,0.00,Wunderground v.1.15,2013-08-11 09:51:00,
2013-08-11 02:56:00,62.9,57.7,29.87,North,355,2.0,4.0,83,0.00,,,0.00,Wunderground v.1.15,2013-08-11 09:56:00,
2013-08-11 03:02:00,62.6,57.4,29.87,North,355,2.0,2.0,83,0.00,,,0.00,Wunderground v.1.15,2013-08-11 10:02:00,
2013-08-11 03:08:00,62.7,57.5,29.88,NNW,336,2.0,2.0,83,0.00,,,0.00,Wunderground v.1.15,2013-08-11 10:08:00,
2013-08-11 03:13:00,62.8,57.2,29.87,NNW,331,2.0,3.0,82,0.00,,,0.00,Wunderground v.1.15,2013-08-11 10:13:00,
2013-08-11 03:19:00,63.0,57.8,29.87,NNW,331,2.0,3.0,83,0.00,,,0.00,Wunderground v.1.15,2013-08-11 10:19:00,
2013-08-11 03:25:00,63.0,57.8,29.87,NNW,331,2.0,3.0,83,0.00,,,0.00,Wunderground v.1.15,2013-08-11 10:25:00,
2013-08-11 03:30:00,62.9,57.7,29.87,NNW,348,2.0,2.0,83,0.00,,,0.00,Wunderground v.1.15,2013-08-11 10:30:00,
2013-08-11 03:36:00,62.9,57.7,29.87,NNW,348,2.0,2.0,83,0.00,,,0.00,Wunderground v.1.15,2013-08-11 10:36:00,
2013-08-11 03:41:00,63.0,57.8,29.87,NNW,348,2.0,2.0,83,0.00,,,0.00,Wunderground v.1.15,2013-08-11 10:41:00,
2013-08-11 03:47:00,63.2,57.9,29.87,NNW,330,2.0,3.0,83,0.00,,,0.00,Wunderground v.1.15,2013-08-11 10:47:00,
2013-08-11 03:52:00,63.4,57.5,29.87,NNW,330,2.0,2.0,81,0.00,,,0.00,Wunderground v.1.15,2013-08-11 10:52:00,
2013-08-11 03:58:00,63.8,57.5,29.87,NNW,330,2.0,3.0,80,0.00,,,0.00,Wunderground v.1.15,2013-08-11 10:58:00,
2013-08-11 04:04:00,64.0,57.7,29.87,NNW,346,2.0,3.0,80,0.00,,,0.00,Wunderground v.1.15,2013-08-11 11:04:00,
2013-08-11 04:09:00,63.8,58.2,29.88,NNW,346,1.0,3.0,82,0.00,,,0.00,Wunderground v.1.15,2013-08-11 11:09:00,
2013-08-11 04:15:00,63.5,57.9,29.88,NNW,346,2.0,3.0,82,0.00,,,0.00,Wunderground v.1.15,2013-08-11 11:15:00,
2013-08-11 04:20:00,63.4,57.8,29.88,NNW,346,2.0,2.0,82,0.00,,,0.00,Wunderground v.1.15,2013-08-11 11:20:00,
2013-08-11 04:26:00,63.4,57.8,29.87,NNW,346,2.0,2.0,82,0.00,,,0.00,Wunderground v.1.15,2013-08-11 11:26:00,
2013-08-11 04:32:00,63.3,57.7,29.87,NNW,346,2.0,2.0,82,0.00,,,0.00,Wunderground v.1.15,2013-08-11 11:32:00,
2013-08-11 04:38:00,63.1,57.2,29.87,NNE,21,2.0,3.0,81,0.00,,,0.00,Wunderground v.1.15,2013-08-11 11:38:00,
2013-08-11 04:43:00,63.2,57.9,29.88,NNW,329,2.0,2.0,83,0.00,,,0.00,Wunderground v.1.15,2013-08-11 11:43:00,
2013-08-11 04:48:00,63.1,57.9,29.88,NNW,329,1.0,2.0,83,0.00,,,0.00,Wunderground v.1.15,2013-08-11 11:48:00,
2013-08-11 04:54:00,62.8,57.6,29.88,NNW,329,1.0,1.0,83,0.00,,,0.00,Wunderground v.1.15,2013-08-11 11:54:00,
2013-08-11 04:59:00,62.7,57.5,29.88,NNW,329,1.0,2.0,83,0.00,,,0.00,Wunderground v.1.15,2013-08-11 11:59:00,
2013-08-11 05:04:00,62.6,57.7,29.88,NNW,329,1.0,2.0,84,0.00,,,0.00,Wunderground v.1.15,2013-08-11 12:04:00,
2013-08-11 05:10:00,62.2,57.3,29.89,NNW,329,2.0,3.0,84,0.00,,,0.00,Wunderground v.1.15,2013-08-11 12:10:00,
2013-08-11 05:15:00,62.4,57.2,29.89,North,349,2.0,3.0,83,0.00,,,0.00,Wunderground v.1.15,2013-08-11 12:15:00,
2013-08-11 05:20:00,62.4,57.5,29.89,North,355,2.0,2.0,84,0.00,,,0.00,Wunderground v.1.15,2013-08-11 12:20:00,
2013-08-11 05:26:00,62.2,57.6,29.89,North,355,1.0,2.0,85,0.00,,,0.00,Wunderground v.1.15,2013-08-11 12:26:00,
2013-08-11 05:34:00,61.8,57.2,29.89,North,355,2.0,2.0,85,0.00,,,0.00,Wunderground v.1.15,2013-08-11 12:34:00,
2013-08-11 05:39:00,61.7,57.5,29.89,North,355,1.0,2.0,86,0.00,,,0.00,Wunderground v.1.15,2013-08-11 12:39:00,
2013-08-11 05:44:00,61.4,57.5,29.89,North,355,1.0,2.0,87,0.00,,,0.00,Wunderground v.1.15,2013-08-11 12:44:00,
2013-08-11 05:50:00,61.3,57.1,29.89,NW,322,2.0,2.0,86,0.00,,,0.00,Wunderground v.1.15,2013-08-11 12:50:00,
2013-08-11 05:55:00,61.5,57.3,29.89,North,5,2.0,4.0,86,0.00,,,0.00,Wunderground v.1.15,2013-08-11 12:55:00,
2013-08-11 06:01:00,61.6,57.0,29.90,North,5,3.0,3.0,85,0.00,,,0.00,Wunderground v.1.15,2013-08-11 13:01:00,
2013-08-11 06:07:00,61.7,57.5,29.89,North,360,2.0,3.0,86,0.00,,,0.00,Wunderground v.1.15,2013-08-11 13:07:00,
2013-08-11 06:12:00,61.7,57.8,29.89,NW,326,2.0,2.0,87,0.00,,,0.00,Wunderground v.1.15,2013-08-11 13:12:00,
2013-08-11 06:17:00,61.6,57.7,29.89,NNW,338,2.0,3.0,87,0.00,,,0.00,Wunderground v.1.15,2013-08-11 13:17:00,
2013-08-11 06:22:00,61.8,57.2,29.90,North,355,2.0,2.0,85,0.00,,,0.00,Wunderground v.1.15,2013-08-11 13:22:00,
2013-08-11 06:28:00,62.2,57.6,29.90,North,360,2.0,3.0,85,0.00,,,0.00,Wunderground v.1.15,2013-08-11 13:28:00,
2013-08-11 06:34:00,62.5,57.9,29.90,NW,313,2.0,2.0,85,0.00,,,0.00,Wunderground v.1.15,2013-08-11 13:34:00,
2013-08-11 06:39:00,62.6,58.0,29.90,NW,313,1.0,2.0,85,0.00,,,0.00,Wunderground v.1.15,2013-08-11 13:39:00,
2013-08-11 06:45:00,62.7,57.5,29.90,NW,313,1.0,1.0,83,0.00,,,0.00,Wunderground v.1.15,2013-08-11 13:45:00,
2013-08-11 06:50:00,62.9,57.7,29.90,NW,313,1.0,1.0,83,0.00,,,0.00,Wunderground v.1.15,2013-08-11 13:50:00,
2013-08-11 06:57:00,63.2,57.9,29.90,NW,313,1.0,2.0,83,0.00,,,0.00,Wunderground v.1.15,2013-08-11 13:57:00,
2013-08-11 07:03:00,63.5,57.9,29.90,NNW,342,1.0,3.0,82,0.00,,,0.00,Wunderground v.1.15,2013-08-11 14:03:00,
2013-08-11 07:08:00,63.9,58.3,29.90,NNW,342,2.0,3.0,82,0.00,,,0.00,Wunderground v.1.15,2013-08-11 14:08:00,
2013-08-11 07:14:00,64.4,58.1,29.90,NNW,342,1.0,2.0,80,0.00,,,0.00,Wunderground v.1.15,2013-08-11 14:14:00,
2013-08-11 07:19:00,64.7,58.4,29.91,NNW,342,1.0,2.0,80,0.00,,,0.00,Wunderground v.1.15,2013-08-11 14:19:00,
2013-08-11 07:25:00,65.1,58.1,29.91,SSE,155,2.0,6.0,78,0.00,,,0.00,Wunderground v.1.15,2013-08-11 14:25:00,
2013-08-11 07:31:00,66.0,58.6,29.91,SSE,155,4.0,8.0,77,0.00,,,0.00,Wunderground v.1.15,2013-08-11 14:31:00,
2013-08-11 07:37:00,66.8,59.0,29.91,SE,146,5.0,8.0,76,0.00,,,0.00,Wunderground v.1.15,2013-08-11 14:37:00,
2013-08-11 07:42:00,67.2,59.0,29.91,SSW,200,4.0,5.0,75,0.00,,,0.00,Wunderground v.1.15,2013-08-11 14:42:00,
2013-08-11 07:47:00,67.5,59.3,29.91,SE,144,4.0,5.0,75,0.00,,,0.00,Wunderground v.1.15,2013-08-11 14:47:00,
2013-08-11 07:53:00,67.9,59.3,29.91,ESE,123,4.0,5.0,74,0.00,,,0.00,Wunderground v.1.15,2013-08-11 14:53:00,
2013-08-11 07:59:00,68.0,59.0,29.91,SE,124,5.0,7.0,73,0.00,,,0.00,Wunderground v.1.15,2013-08-11 14:59:00,
2013-08-11 08:05:00,67.9,59.3,29.92,SE,124,5.0,9.0,74,0.00,,,0.00,Wunderground v.1.15,2013-08-11 15:05:00,
2013-08-11 08:11:00,67.8,59.2,29.92,SSE,162,4.0,5.0,74,0.00,,,0.00,Wunderground v.1.15,2013-08-11 15:11:00,
2013-08-11 08:17:00,67.9,59.3,29.91,West,265,4.0,7.0,74,0.00,,,0.00,Wunderground v.1.15,2013-08-11 15:17:00,
2013-08-11 08:22:00,67.8,59.2,29.91,SSE,168,4.0,5.0,74,0.00,,,0.00,Wunderground v.1.15,2013-08-11 15:22:00,
2013-08-11 08:28:00,67.7,59.1,29.91,South,172,5.0,6.0,74,0.00,,,0.00,Wunderground v.1.15,2013-08-11 15:28:00,
2013-08-11 08:33:00,67.5,58.9,29.92,South,175,5.0,8.0,74,0.00,,,0.00,Wunderground v.1.15,2013-08-11 15:33:00,
2013-08-11 08:38:00,67.4,59.2,29.92,SSE,157,5.0,8.0,75,0.00,,,0.00,Wunderground v.1.15,2013-08-11 15:38:00,
2013-08-11 08:44:00,68.2,60.0,29.91,SSE,162,4.0,9.0,75,0.00,,,0.00,Wunderground v.1.15,2013-08-11 15:44:00,
2013-08-11 08:49:00,68.9,59.9,29.91,SE,130,5.0,9.0,73,0.00,,,0.00,Wunderground v.1.15,2013-08-11 15:49:00,
2013-08-11 08:55:00,69.1,60.1,29.91,SE,134,5.0,7.0,73,0.00,,,0.00,Wunderground v.1.15,2013-08-11 15:55:00,
2013-08-11 09:00:00,69.4,60.4,29.91,South,185,4.0,4.0,73,0.00,,,0.00,Wunderground v.1.15,2013-08-11 16:00:00,
2013-08-11 09:06:00,69.9,60.1,29.91,SSW,198,4.0,6.0,71,0.00,,,0.00,Wunderground v.1.15,2013-08-11 16:06:00,
2013-08-11 09:11:00,70.1,59.9,29.91,South,175,4.0,8.0,70,0.00,,,0.00,Wunderground v.1.15,2013-08-11 16:11:00,
2013-08-11 09:16:00,70.1,60.3,29.91,ESE,121,5.0,8.0,71,0.00,,,0.00,Wunderground v.1.15,2013-08-11 16:16:00,
2013-08-11 09:22:00,70.5,60.6,29.91,SE,146,5.0,6.0,71,0.00,,,0.00,Wunderground v.1.15,2013-08-11 16:22:00,
2013-08-11 09:28:00,70.5,60.6,29.91,South,183,5.0,9.0,71,0.00,,,0.00,Wunderground v.1.15,2013-08-11 16:28:00,
2013-08-11 09:34:00,70.7,60.8,29.90,SSE,164,5.0,9.0,71,0.00,,,0.00,Wunderground v.1.15,2013-08-11 16:34:00,
2013-08-11 09:39:00,71.1,60.8,29.90,SSE,150,6.0,9.0,70,0.00,,,0.00,Wunderground v.1.15,2013-08-11 16:39:00,
2013-08-11 09:45:00,71.1,60.4,29.90,South,180,6.0,7.0,69,0.00,,,0.00,Wunderground v.1.15,2013-08-11 16:45:00,
2013-08-11 09:50:00,71.4,60.3,29.90,SW,215,6.0,6.0,68,0.00,,,0.00,Wunderground v.1.15,2013-08-11 16:50:00,
2013-08-11 09:56:00,71.7,61.0,29.90,SE,131,6.0,8.0,69,0.00,,,0.00,Wunderground v.1.15,2013-08-11 16:56:00,
2013-08-11 10:02:00,72.3,60.7,29.90,South,186,6.0,7.0,67,0.00,,,0.00,Wunderground v.1.15,2013-08-11 17:02:00,
2013-08-11 10:09:00,72.7,60.7,29.90,South,182,5.0,9.0,66,0.00,,,0.00,Wunderground v.1.15,2013-08-11 17:09:00,
2013-08-11 10:15:00,72.5,60.1,29.90,South,171,6.0,13.0,65,0.00,,,0.00,Wunderground v.1.15,2013-08-11 17:15:00,
2013-08-11 10:21:00,72.6,60.2,29.90,SSE,155,6.0,6.0,65,0.00,,,0.00,Wunderground v.1.15,2013-08-11 17:21:00,
2013-08-11 10:26:00,73.0,61.0,29.90,SSE,157,5.0,7.0,66,0.00,,,0.00,Wunderground v.1.15,2013-08-11 17:26:00,
2013-08-11 10:32:00,73.3,61.3,29.90,ESE,121,5.0,7.0,66,0.00,,,0.00,Wunderground v.1.15,2013-08-11 17:32:00,
2013-08-11 10:38:00,73.8,60.4,29.90,SW,217,6.0,8.0,63,0.00,,,0.00,Wunderground v.1.15,2013-08-11 17:38:00,
2013-08-11 10:43:00,73.9,61.8,29.90,South,184,4.0,5.0,66,0.00,,,0.00,Wunderground v.1.15,2013-08-11 17:43:00,
2013-08-11 10:48:00,74.4,61.9,29.90,SSE,163,4.0,5.0,65,0.00,,,0.00,Wunderground v.1.15,2013-08-11 17:48:00,
2013-08-11 10:54:00,74.7,61.3,29.89,SSE,161,4.0,7.0,63,0.00,,,0.00,Wunderground v.1.15,2013-08-11 17:54:00,
2013-08-11 10:59:00,74.7,60.8,29.89,SE,144,5.0,10.0,62,0.00,,,0.00,Wunderground v.1.15,2013-08-11 17:59:00,
2013-08-11 11:04:00,74.6,61.2,29.90,SE,145,5.0,7.0,63,0.00,,,0.00,Wunderground v.1.15,2013-08-11 18:04:00,
2013-08-11 11:09:00,74.9,60.5,29.90,South,184,5.0,7.0,61,0.00,,,0.00,Wunderground v.1.15,2013-08-11 18:09:00,
2013-08-11 11:15:00,75.1,61.2,29.89,SE,142,5.0,8.0,62,0.00,,,0.00,Wunderground v.1.15,2013-08-11 18:15:00,
2013-08-11 11:20:00,75.3,60.5,29.89,ESE,109,5.0,6.0,60,0.00,,,0.00,Wunderground v.1.15,2013-08-11 18:20:00,
2013-08-11 11:26:00,75.8,61.4,29.89,South,182,5.0,8.0,61,0.00,,,0.00,Wunderground v.1.15,2013-08-11 18:26:00,
2013-08-11 11:31:00,76.3,61.4,29.89,SE,143,5.0,6.0,60,0.00,,,0.00,Wunderground v.1.15,2013-08-11 18:31:00,
2013-08-11 11:37:00,76.0,61.1,29.89,WSW,239,5.0,8.0,60,0.00,,,0.00,Wunderground v.1.15,2013-08-11 18:37:00,
2013-08-11 11:42:00,76.1,61.2,29.89,SE,146,4.0,5.0,60,0.00,,,0.00,Wunderground v.1.15,2013-08-11 18:42:00,
2013-08-11 11:48:00,76.6,60.7,29.89,South,178,4.0,6.0,58,0.00,,,0.00,Wunderground v.1.15,2013-08-11 18:48:00,
2013-08-11 11:53:00,76.5,60.6,29.89,SSE,155,5.0,8.0,58,0.00,,,0.00,Wunderground v.1.15,2013-08-11 18:53:00,
2013-08-11 11:59:00,76.3,60.4,29.89,SW,233,7.0,10.0,58,0.00,,,0.00,Wunderground v.1.15,2013-08-11 18:59:00,
2013-08-11 12:05:00,76.9,62.0,29.88,SE,137,5.0,6.0,60,0.00,,,0.00,Wunderground v.1.15,2013-08-11 19:05:00,
2013-08-11 12:10:00,77.3,61.4,29.88,SE,139,4.0,10.0,58,0.00,,,0.00,Wunderground v.1.15,2013-08-11 19:10:00,
2013-08-11 12:16:00,77.7,60.8,29.88,SSE,159,5.0,10.0,56,0.00,,,0.00,Wunderground v.1.15,2013-08-11 19:16:00,
2013-08-11 12:22:00,78.2,61.7,29.88,WSW,240,4.0,7.0,57,0.00,,,0.00,Wunderground v.1.15,2013-08-11 19:22:00,
2013-08-11 12:28:00,78.3,60.8,29.88,SW,221,4.0,8.0,55,0.00,,,0.00,Wunderground v.1.15,2013-08-11 19:28:00,
2013-08-11 12:33:00,78.3,60.8,29.87,SSE,162,5.0,7.0,55,0.00,,,0.00,Wunderground v.1.15,2013-08-11 19:33:00,
2013-08-11 12:39:00,78.4,61.9,29.87,South,180,4.0,7.0,57,0.00,,,0.00,Wunderground v.1.15,2013-08-11 19:39:00,
2013-08-11 12:45:00,78.9,60.3,29.87,SSE,159,5.0,7.0,53,0.00,,,0.00,Wunderground v.1.15,2013-08-11 19:45:00,
2013-08-11 12:51:00,79.2,60.1,29.87,SSE,162,5.0,5.0,52,0.00,,,0.00,Wunderground v.1.15,2013-08-11 19:51:00,
2013-08-11 12:56:00,79.7,61.1,29.86,East,83,3.0,5.0,53,0.00,,,0.00,Wunderground v.1.15,2013-08-11 19:56:00,
2013-08-11 13:02:00,80.1,60.9,29.86,South,183,3.0,5.0,52,0.00,,,0.00,Wunderground v.1.15,2013-08-11 20:02:00,
2013-08-11 13:08:00,79.9,60.7,29.86,SE,133,4.0,7.0,52,0.00,,,0.00,Wunderground v.1.15,2013-08-11 20:08:00,
2013-08-11 13:13:00,79.7,60.0,29.86,SSE,149,6.0,9.0,51,0.00,,,0.00,Wunderground v.1.15,2013-08-11 20:13:00,
2013-08-11 13:19:00,80.0,60.2,29.86,South,169,6.0,9.0,51,0.00,,,0.00,Wunderground v.1.15,2013-08-11 20:19:00,
2013-08-11 13:25:00,80.3,60.0,29.85,SE,146,5.0,12.0,50,0.00,,,0.00,Wunderground v.1.15,2013-08-11 20:25:00,
2013-08-11 13:31:00,80.2,60.4,29.85,South,171,6.0,12.0,51,0.00,,,0.00,Wunderground v.1.15,2013-08-11 20:31:00,
2013-08-11 13:37:00,80.4,60.6,29.85,South,177,5.0,12.0,51,0.00,,,0.00,Wunderground v.1.15,2013-08-11 20:37:00,
2013-08-11 13:43:00,80.5,60.1,29.85,SE,126,6.0,9.0,50,0.00,,,0.00,Wunderground v.1.15,2013-08-11 20:43:00,
2013-08-11 13:48:00,81.1,60.1,29.85,SSE,167,7.0,10.0,49,0.00,,,0.00,Wunderground v.1.15,2013-08-11 20:48:00,
2013-08-11 13:54:00,81.3,60.3,29.85,SE,137,6.0,7.0,49,0.00,,,0.00,Wunderground v.1.15,2013-08-11 20:54:00,
2013-08-11 13:59:00,81.6,59.4,29.85,South,171,5.0,8.0,47,0.00,,,0.00,Wunderground v.1.15,2013-08-11 20:59:00,
2013-08-11 14:05:00,81.7,59.5,29.84,SE,146,6.0,14.0,47,0.00,,,0.00,Wunderground v.1.15,2013-08-11 21:05:00,
2013-08-11 14:11:00,81.3,59.7,29.84,SSE,150,7.0,7.0,48,0.00,,,0.00,Wunderground v.1.15,2013-08-11 21:11:00,
2013-08-11 14:16:00,81.3,59.1,29.84,SE,146,5.0,7.0,47,0.00,,,0.00,Wunderground v.1.15,2013-08-11 21:16:00,
2013-08-11 14:21:00,81.6,60.0,29.84,South,171,3.0,5.0,48,0.00,,,0.00,Wunderground v.1.15,2013-08-11 21:21:00,
2013-08-11 14:27:00,81.6,60.0,29.84,NW,307,4.0,8.0,48,0.00,,,0.00,Wunderground v.1.15,2013-08-11 21:27:00,
2013-08-11 14:33:00,81.2,59.1,29.83,SE,145,6.0,10.0,47,0.00,,,0.00,Wunderground v.1.15,2013-08-11 21:33:00,
2013-08-11 14:38:00,81.4,60.4,29.83,South,171,7.0,10.0,49,0.00,,,0.00,Wunderground v.1.15,2013-08-11 21:38:00,
2013-08-11 14:44:00,81.2,59.1,29.83,South,189,5.0,9.0,47,0.00,,,0.00,Wunderground v.1.15,2013-08-11 21:44:00,
2013-08-11 14:49:00,81.5,60.5,29.83,SSE,165,4.0,9.0,49,0.00,,,0.00,Wunderground v.1.15,2013-08-11 21:49:00,
2013-08-11 14:54:00,81.7,60.7,29.83,ESE,114,4.0,10.0,49,0.00,,,0.00,Wunderground v.1.15,2013-08-11 21:54:00,
2013-08-11 14:59:00,81.8,60.2,29.83,SSE,150,7.0,12.0,48,0.00,,,0.00,Wunderground v.1.15,2013-08-11 21:59:00,
2013-08-11 15:05:00,82.5,59.0,29.83,SSE,151,6.0,7.0,45,0.00,,,0.00,Wunderground v.1.15,2013-08-11 22:05:00,
2013-08-11 15:11:00,82.0,58.6,29.83,SSE,159,6.0,8.0,45,0.00,,,0.00,Wunderground v.1.15,2013-08-11 22:11:00,
2013-08-11 15:17:00,81.2,58.5,29.82,SSE,152,5.0,8.0,46,0.00,,,0.00,Wunderground v.1.15,2013-08-11 22:17:00,
2013-08-11 15:23:00,80.6,59.1,29.82,SSE,149,6.0,9.0,48,0.00,,,0.00,Wunderground v.1.15,2013-08-11 22:23:00,
2013-08-11 15:29:00,80.6,59.1,29.82,SSE,155,4.0,9.0,48,0.00,,,0.00,Wunderground v.1.15,2013-08-11 22:29:00,
2013-08-11 15:35:00,80.7,58.6,29.81,SE,145,3.0,4.0,47,0.00,,,0.00,Wunderground v.1.15,2013-08-11 22:35:00,
2013-08-11 15:41:00,81.3,59.1,29.81,SE,142,3.0,6.0,47,0.00,,,0.00,Wunderground v.1.15,2013-08-11 22:41:00,
2013-08-11 15:46:00,81.2,59.1,29.82,SSE,159,4.0,6.0,47,0.00,,,0.00,Wunderground v.1.15,2013-08-11 22:46:00,
2013-08-11 15:52:00,81.3,59.7,29.82,ESE,117,4.0,7.0,48,0.00,,,0.00,Wunderground v.1.15,2013-08-11 22:52:00,
2013-08-11 15:58:00,81.4,59.2,29.81,SE,142,4.0,10.0,47,0.00,,,0.00,Wunderground v.1.15,2013-08-11 22:58:00,
2013-08-11 16:04:00,81.7,58.9,29.81,ESE,117,4.0,5.0,46,0.00,,,0.00,Wunderground v.1.15,2013-08-11 23:04:00,
2013-08-11 16:09:00,82.2,59.4,29.80,SE,144,5.0,8.0,46,0.00,,,0.00,Wunderground v.1.15,2013-08-11 23:09:00,
2013-08-11 16:15:00,82.3,60.1,29.80,SSE,158,6.0,7.0,47,0.00,,,0.00,Wunderground v.1.15,2013-08-11 23:15:00,
2013-08-11 16:20:00,82.5,59.6,29.80,SSE,150,5.0,5.0,46,0.00,,,0.00,Wunderground v.1.15,2013-08-11 23:20:00,
2013-08-11 16:26:00,82.6,60.3,29.80,ESE,115,5.0,8.0,47,0.00,,,0.00,Wunderground v.1.15,2013-08-11 23:26:00,
2013-08-11 16:31:00,82.7,60.4,29.80,SSE,153,4.0,4.0,47,0.00,,,0.00,Wunderground v.1.15,2013-08-11 23:31:00,
2013-08-11 16:36:00,82.9,58.7,29.80,SE,145,4.0,9.0,44,0.00,,,0.00,Wunderground v.1.15,2013-08-11 23:36:00,
2013-08-11 16:42:00,82.5,58.4,29.80,ESE,120,6.0,7.0,44,0.00,,,0.00,Wunderground v.1.15,2013-08-11 23:42:00,
2013-08-11 16:47:00,82.6,59.1,29.80,SE,130,5.0,7.0,45,0.00,,,0.00,Wunderground v.1.15,2013-08-11 23:47:00,
2013-08-11 16:53:00,82.9,59.4,29.80,SSE,167,4.0,5.0,45,0.00,,,0.00,Wunderground v.1.15,2013-08-11 23:53:00,
2013-08-11 16:59:00,83.2,60.3,29.80,SW,229,3.0,5.0,46,0.00,,,0.00,Wunderground v.1.15,2013-08-11 23:59:00,
2013-08-11 17:05:00,83.0,59.5,29.80,SE,146,3.0,6.0,45,0.00,,,0.00,Wunderground v.1.15,2013-08-12 00:05:00,
2013-08-11 17:10:00,82.9,58.7,29.79,SSE,157,4.0,5.0,44,0.00,,,0.00,Wunderground v.1.15,2013-08-12 00:10:00,
2013-08-11 17:15:00,82.8,58.7,29.79,SSE,165,4.0,5.0,44,0.00,,,0.00,Wunderground v.1.15,2013-08-12 00:15:00,
2013-08-11 17:21:00,82.7,59.2,29.79,SSE,161,3.0,4.0,45,0.00,,,0.00,Wunderground v.1.15,2013-08-12 00:21:00,
2013-08-11 17:27:00,82.8,59.3,29.79,SSE,158,2.0,4.0,45,0.00,,,0.00,Wunderground v.1.15,2013-08-12 00:27:00,
2013-08-11 17:33:00,82.7,59.2,29.79,SSE,150,3.0,4.0,45,0.00,,,0.00,Wunderground v.1.15,2013-08-12 00:33:00,
2013-08-11 17:39:00,82.4,58.3,29.79,ESE,111,3.0,8.0,44,0.00,,,0.00,Wunderground v.1.15,2013-08-12 00:39:00,
2013-08-11 17:45:00,82.0,58.6,29.79,SSE,150,4.0,6.0,45,0.00,,,0.00,Wunderground v.1.15,2013-08-12 00:45:00,
2013-08-11 17:50:00,81.8,59.0,29.79,WSW,242,3.0,3.0,46,0.00,,,0.00,Wunderground v.1.15,2013-08-12 00:50:00,
2013-08-11 17:56:00,81.6,58.8,29.79,WSW,243,3.0,4.0,46,0.00,,,0.00,Wunderground v.1.15,2013-08-12 00:56:00,
2013-08-11 18:02:00,81.3,58.5,29.79,SE,139,3.0,4.0,46,0.00,,,0.00,Wunderground v.1.15,2013-08-12 01:02:00,
2013-08-11 18:08:00,80.8,57.5,29.79,SE,140,3.0,5.0,45,0.00,,,0.00,Wunderground v.1.15,2013-08-12 01:08:00,
2013-08-11 18:13:00,80.1,56.8,29.79,SSE,149,4.0,7.0,45,0.00,,,0.00,Wunderground v.1.15,2013-08-12 01:13:00,
2013-08-11 18:19:00,79.6,57.0,29.79,SSE,148,4.0,7.0,46,0.00,,,0.00,Wunderground v.1.15,2013-08-12 01:19:00,
2013-08-11 18:25:00,79.3,57.9,29.79,WSW,237,3.0,5.0,48,0.00,,,0.00,Wunderground v.1.15,2013-08-12 01:25:00,
2013-08-11 18:30:00,79.1,57.7,29.79,WSW,237,2.0,2.0,48,0.00,,,0.00,Wunderground v.1.15,2013-08-12 01:30:00,
2013-08-11 18:36:00,79.0,58.2,29.78,WSW,237,1.0,2.0,49,0.00,,,0.00,Wunderground v.1.15,2013-08-12 01:36:00,
2013-08-11 18:41:00,78.9,57.0,29.78,SSE,157,2.0,5.0,47,0.00,,,0.00,Wunderground v.1.15,2013-08-12 01:41:00,
2013-08-11 18:47:00,78.7,57.4,29.79,SSE,149,4.0,10.0,48,0.00,,,0.00,Wunderground v.1.15,2013-08-12 01:47:00,
2013-08-11 18:52:00,77.7,57.0,29.79,SE,139,6.0,9.0,49,0.00,,,0.00,Wunderground v.1.15,2013-08-12 01:52:00,
2013-08-11 18:58:00,77.0,57.5,29.79,South,169,6.0,9.0,51,0.00,,,0.00,Wunderground v.1.15,2013-08-12 01:58:00,
2013-08-11 19:04:00,76.7,57.2,29.79,SE,134,4.0,6.0,51,0.00,,,0.00,Wunderground v.1.15,2013-08-12 02:04:00,
2013-08-11 19:09:00,76.6,57.7,29.80,SE,130,3.0,6.0,52,0.00,,,0.00,Wunderground v.1.15,2013-08-12 02:09:00,
2013-08-11 19:15:00,76.4,58.0,29.80,ESE,115,4.0,6.0,53,0.00,,,0.00,Wunderground v.1.15,2013-08-12 02:15:00,
2013-08-11 19:20:00,76.3,57.9,29.80,SSE,167,5.0,12.0,53,0.00,,,0.00,Wunderground v.1.15,2013-08-12 02:20:00,
2013-08-11 19:26:00,75.9,57.0,29.80,SE,136,6.0,12.0,52,0.00,,,0.00,Wunderground v.1.15,2013-08-12 02:26:00,
2013-08-11 19:31:00,75.5,56.6,29.80,SSE,165,7.0,7.0,52,0.00,,,0.00,Wunderground v.1.15,2013-08-12 02:31:00,
2013-08-11 19:37:00,75.0,56.7,29.80,South,171,7.0,11.0,53,0.00,,,0.00,Wunderground v.1.15,2013-08-12 02:37:00,
2013-08-11 19:42:00,74.7,56.4,29.81,South,170,6.0,9.0,53,0.00,,,0.00,Wunderground v.1.15,2013-08-12 02:42:00,
2013-08-11 19:48:00,74.2,56.5,29.81,SSE,150,4.0,9.0,54,0.00,,,0.00,Wunderground v.1.15,2013-08-12 02:48:00,
2013-08-11 19:53:00,73.8,56.6,29.81,SSE,165,2.0,4.0,55,0.00,,,0.00,Wunderground v.1.15,2013-08-12 02:53:00,
2013-08-11 19:59:00,73.5,56.8,29.81,SE,142,1.0,4.0,56,0.00,,,0.00,Wunderground v.1.15,2013-08-12 02:59:00,
2013-08-11 20:05:00,73.1,57.4,29.81,SE,142,1.0,1.0,58,0.00,,,0.00,Wunderground v.1.15,2013-08-12 03:05:00,
2013-08-11 20:11:00,72.6,57.4,29.81,North,360,2.0,3.0,59,0.00,,,0.00,Wunderground v.1.15,2013-08-12 03:11:00,
2013-08-11 20:17:00,71.9,57.3,29.82,NNW,346,2.0,4.0,60,0.00,,,0.00,Wunderground v.1.15,2013-08-12 03:17:00,
2013-08-11 20:22:00,71.5,57.3,29.82,NNW,332,3.0,3.0,61,0.00,,,0.00,Wunderground v.1.15,2013-08-12 03:22:00,
2013-08-11 20:27:00,71.3,57.2,29.81,NW,323,3.0,4.0,61,0.00,,,0.00,Wunderground v.1.15,2013-08-12 03:27:00,
2013-08-11 20:33:00,71.2,57.5,29.81,NW,317,3.0,3.0,62,0.00,,,0.00,Wunderground v.1.15,2013-08-12 03:33:00,
2013-08-11 20:39:00,71.1,57.4,29.82,NNW,340,2.0,3.0,62,0.00,,,0.00,Wunderground v.1.15,2013-08-12 03:39:00,
2013-08-11 20:44:00,70.8,57.1,29.82,North,9,2.0,3.0,62,0.00,,,0.00,Wunderground v.1.15,2013-08-12 03:44:00,
2013-08-11 20:49:00,70.7,57.5,29.82,North,9,2.0,3.0,63,0.00,,,0.00,Wunderground v.1.15,2013-08-12 03:49:00,
2013-08-11 20:55:00,70.4,57.6,29.82,NW,320,2.0,3.0,64,0.00,,,0.00,Wunderground v.1.15,2013-08-12 03:55:00,
2013-08-11 21:00:00,70.0,57.7,29.83,NW,320,2.0,2.0,65,0.00,,,0.00,Wunderground v.1.15,2013-08-12 04:00:00,
2013-08-11 21:01:00,69.9,58.0,29.82,NW,320,2.0,2.0,66,0.00,,,0.00,Wunderground v.1.15,2013-08-12 04:01:00,
2013-08-11 21:02:00,69.8,57.5,29.82,NW,320,2.0,2.0,65,0.00,,,0.00,Wunderground v.1.15,2013-08-12 04:02:00,
2013-08-11 21:04:00,69.8,57.5,29.82,NW,320,2.0,3.0,65,0.00,,,0.00,Wunderground v.1.15,2013-08-12 04:04:00,
2013-08-11 21:07:00,69.6,57.3,29.83,NNW,333,2.0,3.0,65,0.00,,,0.00,Wunderground v.1.15,2013-08-12 04:07:00,
2013-08-11 21:10:00,69.5,57.6,29.83,NNW,333,2.0,2.0,66,0.00,,,0.00,Wunderground v.1.15,2013-08-12 04:10:00,
2013-08-11 21:15:00,69.4,58.0,29.83,NNW,333,2.0,3.0,67,0.00,,,0.00,Wunderground v.1.15,2013-08-12 04:15:00,
2013-08-11 21:18:00,69.3,57.9,29.83,NNW,333,2.0,3.0,67,0.00,,,0.00,Wunderground v.1.15,2013-08-12 04:18:00,
2013-08-11 21:23:00,69.0,58.0,29.83,NNW,333,2.0,2.0,68,0.00,,,0.00,Wunderground v.1.15,2013-08-12 04:23:00,
2013-08-11 21:29:00,68.5,58.3,29.83,NNW,333,2.0,2.0,70,0.00,,,0.00,Wunderground v.1.15,2013-08-12 04:29:00,
2013-08-11 21:35:00,68.2,58.4,29.83,NW,326,2.0,2.0,71,0.00,,,0.00,Wunderground v.1.15,2013-08-12 04:35:00,
2013-08-11 21:40:00,68.0,57.4,29.83,NW,326,2.0,2.0,69,0.00,,,0.00,Wunderground v.1.15,2013-08-12 04:40:00,
2013-08-11 21:46:00,68.0,57.8,29.82,NW,326,2.0,3.0,70,0.00,,,0.00,Wunderground v.1.15,2013-08-12 04:46:00,
2013-08-11 21:51:00,67.7,58.0,29.83,NNW,348,2.0,3.0,71,0.00,,,0.00,Wunderground v.1.15,2013-08-12 04:51:00,
2013-08-11 21:57:00,67.4,58.1,29.82,North,351,2.0,3.0,72,0.00,,,0.00,Wunderground v.1.15,2013-08-12 04:57:00,
2013-08-11 22:02:00,67.2,57.9,29.82,North,351,2.0,2.0,72,0.00,,,0.00,Wunderground v.1.15,2013-08-12 05:02:00,
2013-08-11 22:08:00,67.1,58.2,29.82,North,351,2.0,2.0,73,0.00,,,0.00,Wunderground v.1.15,2013-08-12 05:08:00,
2013-08-11 22:13:00,66.9,57.6,29.82,NNW,344,2.0,3.0,72,0.00,,,0.00,Wunderground v.1.15,2013-08-12 05:13:00,
2013-08-11 22:19:00,66.9,57.2,29.82,NNW,346,2.0,3.0,71,0.00,,,0.00,Wunderground v.1.15,2013-08-12 05:19:00,
2013-08-11 22:25:00,67.1,57.4,29.83,North,355,3.0,4.0,71,0.00,,,0.00,Wunderground v.1.15,2013-08-12 05:25:00,
2013-08-11 22:30:00,67.1,58.2,29.82,North,355,2.0,2.0,73,0.00,,,0.00,Wunderground v.1.15,2013-08-12 05:30:00,
2013-08-11 22:36:00,66.9,58.0,29.82,NNW,339,2.0,3.0,73,0.00,,,0.00,Wunderground v.1.15,2013-08-12 05:36:00,
2013-08-11 22:41:00,66.7,57.8,29.82,NNW,339,2.0,2.0,73,0.00,,,0.00,Wunderground v.1.15,2013-08-12 05:41:00,
2013-08-11 22:47:00,66.4,57.9,29.82,NNW,336,2.0,3.0,74,0.00,,,0.00,Wunderground v.1.15,2013-08-12 05:47:00,
2013-08-11 22:53:00,66.2,57.7,29.83,NNW,331,2.0,2.0,74,0.00,,,0.00,Wunderground v.1.15,2013-08-12 05:53:00,
2013-08-11 22:59:00,66.0,57.8,29.83,NNW,331,2.0,3.0,75,0.00,,,0.00,Wunderground v.1.15,2013-08-12 05:59:00,
2013-08-11 23:05:00,66.0,57.5,29.83,NNW,331,2.0,3.0,74,0.00,,,0.00,Wunderground v.1.15,2013-08-12 06:05:00,
2013-08-11 23:10:00,66.0,57.5,29.84,NNW,342,2.0,3.0,74,0.00,,,0.00,Wunderground v.1.15,2013-08-12 06:10:00,
2013-08-11 23:15:00,66.1,57.9,29.84,NNW,347,3.0,3.0,75,0.00,,,0.00,Wunderground v.1.15,2013-08-12 06:15:00,
2013-08-11 23:20:00,66.1,57.9,29.84,NNW,347,2.0,2.0,75,0.00,,,0.00,Wunderground v.1.15,2013-08-12 06:20:00,
2013-08-11 23:26:00,66.1,57.6,29.84,NNW,340,2.0,3.0,74,0.00,,,0.00,Wunderground v.1.15,2013-08-12 06:26:00,
2013-08-11 23:32:00,66.2,57.7,29.84,NNW,340,2.0,3.0,74,0.00,,,0.00,Wunderground v.1.15,2013-08-12 06:32:00,
2013-08-11 23:38:00,66.2,57.7,29.84,NNW,340,2.0,3.0,74,0.00,,,0.00,Wunderground v.1.15,2013-08-12 06:38:00,
2013-08-11 23:44:00,66.3,57.8,29.84,NNW,340,2.0,2.0,74,0.00,,,0.00,Wunderground v.1.15,2013-08-12 06:44:00,
2013-08-11 23:49:00,66.2,58.0,29.85,NNW,340,2.0,2.0,75,0.00,,,0.00,Wunderground v.1.15,2013-08-12 06:49:00,
2013-08-11 23:55:00,65.9,58.1,29.85,NNW,340,2.0,2.0,76,0.00,,,0.00,Wunderground v.1.15,2013-08-12 06:55:00,